Location: Burbank
(38.7788°N, 114.0429°W)
Time: 21:03:18
(UTC+00:00)

S-56A Canister/Altair - Pass Details

Date: 10 May 2026
Orbit: 632 x 2484 km, 38.9° (Epoch: 8 June)

Event Time Altitude Azimuth Distance (km) Brightness Sun altitude
Rises 07:12:16 0° 265° (W) 2,979 - -33.4°
Reaches altitude 10° 07:14:21 10° 265° (W) 2,145 - -33.4°
Maximum altitude 07:19:13 90° 7° (N) 829 - -33.5°
Exits shadow 07:25:09 13° 86° (E) 2,638 10.2 -33.5°
Drops below altitude 10° 07:25:59 10° 87° (E) 2,951 10.5 -33.5°
Sets 07:29:18 0° 87° (E) 4,202 11.3 -33.6°
